Weather History for Salina, KS

Change the Weather History Date:

Saturday, April 6, 2013

  Actual Average Record
Temperature  
Mean Temperature 62 °F 52 °F  
Max Temperature 78 °F 64 °F 89 °F (1954)
Min Temperature 46 °F 40 °F 17 °F (1936)
Degree Days  
Heating Degree Days 3 13  
Month to date heating degree days 98 84  
Since 1 July heating degree days 4442 4534  
Cooling Degree Days 0 0  
Month to date cooling degree days 0 0  
Year to date cooling degree days 0 2  
Growing Degree Days 12 (Base 50)    
Moisture  
Dew Point 42 °F    
Average Humidity 48    
Maximum Humidity 71    
Minimum Humidity 25    
Precipitation  
Precipitation 0.00 in 0.10 in 1.70 in (2005)
Month to date precipitation T 0.55  
Year to date precipitation 3.89 4.74  
Sea Level Pressure  
Sea Level Pressure 29.72 in    
Wind  
Wind Speed 16 mph (WSW)    
Max Wind Speed 35 mph    
Max Gust Speed 47 mph    
Visibility 10 miles    
Events      
T = Trace of Precipitation, MM = Missing Value Source: NWS Daily Summary

Daily Weather History Graph

Daily Weather History Graph

Search for Another Location

Airport:

Trip Planner

Search our weather history database for the weather conditions in past years. The results will help you decide how hot, cold, wet, or windy it might be!

Date:

Astronomy

Apr. 06, 2013 Rise Set
Actual Time 7:07 AM CDT 7:59 PM CDT
Civil Twilight 6:40 AM CDT 8:26 PM CDT
Nautical Twilight 6:08 AM CDT 8:58 PM CDT
Astronomical Twilight 5:35 AM CDT 9:31 PM CDT
Moon 4:49 AM CDT (4/6) 4:31 PM CDT (4/6)
Length of Visible Light 13h 46m
Length of Day
12h 52m
Waning Crescent, 15% of the Moon is Illuminated
Apr 6
Waning Crescent
Apr 10
New
Apr 18
First Quarter
Apr 25
Full
May 2
Last Quarter

Hourly Weather History & Observations

Time (CDT) Temp. Dew Point Humidity Pressure Visibility Wind Dir Wind Speed Gust Speed Precip Events Conditions
12:53 AM 57.9 °F 43.0 °F 58% 29.69 in 10.0 mi South 31.1 mph 46.0 mph N/A   Clear
1:53 AM 57.9 °F 43.0 °F 58% 29.67 in 10.0 mi South 26.5 mph 41.4 mph N/A   Clear
2:53 AM 57.0 °F 43.0 °F 59% 29.64 in 10.0 mi South 25.3 mph 36.8 mph N/A   Clear
3:53 AM 55.9 °F 44.1 °F 64% 29.64 in 10.0 mi SSW 27.6 mph 34.5 mph N/A   Partly Cloudy
4:53 AM 55.0 °F 44.1 °F 67% 29.67 in 10.0 mi South 9.2 mph 18.4 mph N/A   Clear
5:53 AM 54.0 °F 44.1 °F 69% 29.67 in 10.0 mi South 10.4 mph - N/A   Clear
6:53 AM 54.0 °F 45.0 °F 72% 29.66 in 10.0 mi South 11.5 mph - N/A   Clear
7:53 AM 55.0 °F 45.0 °F 69% 29.67 in 10.0 mi SSW 13.8 mph - N/A   Clear
8:53 AM 59.0 °F 45.0 °F 60% 29.69 in 10.0 mi WSW 15.0 mph - N/A   Clear
9:53 AM 64.9 °F 43.0 °F 45% 29.69 in 10.0 mi NW 23.0 mph 28.8 mph N/A   Clear
10:53 AM 68.0 °F 39.9 °F 36% 29.71 in 10.0 mi NW 27.6 mph 33.4 mph N/A   Partly Cloudy
11:53 AM 69.1 °F 41.0 °F 36% 29.74 in 10.0 mi NW 23.0 mph 29.9 mph N/A   Clear
12:53 PM 73.0 °F 42.1 °F 33% 29.74 in 10.0 mi NW 17.3 mph 24.2 mph N/A   Clear
1:53 PM 73.9 °F 41.0 °F 30% 29.73 in 10.0 mi NW 19.6 mph 28.8 mph N/A   Clear
2:53 PM 75.9 °F 39.0 °F 26% 29.72 in 10.0 mi WNW 18.4 mph 27.6 mph N/A   Clear
3:53 PM 75.9 °F 37.9 °F 25% 29.72 in 10.0 mi WNW 19.6 mph 29.9 mph N/A   Clear
4:53 PM 75.9 °F 39.0 °F 26% 29.73 in 10.0 mi NW 20.7 mph - N/A   Clear
5:53 PM 75.0 °F 41.0 °F 29% 29.76 in 10.0 mi NW 17.3 mph - N/A   Clear
6:53 PM 71.1 °F 42.1 °F 35% 29.78 in 10.0 mi North 15.0 mph - N/A   Clear
7:53 PM 64.9 °F 43.0 °F 45% 29.80 in 10.0 mi North 6.9 mph - N/A   Clear
8:53 PM 61.0 °F 41.0 °F 48% 29.80 in 10.0 mi Calm Calm - N/A   Clear
9:53 PM 51.1 °F 41.0 °F 68% 29.82 in 10.0 mi South 4.6 mph - N/A   Clear
10:53 PM 50.0 °F 41.0 °F 71% 29.82 in 10.0 mi South 4.6 mph - N/A   Clear
11:53 PM 51.1 °F 41.0 °F 68% 29.83 in 10.0 mi SSW 9.2 mph - N/A   Clear